Location: Guferjoch
(46.7462°N, 8.4506°E)
Time: 13:25:24
(UTC+00:00)

COBE Rocket - Pass Details

Date: 14 July 2020
Orbit: 679 x 783 km, 97.1° (Epoch: 06 August)

Event Time Altitude Azimuth Distance (km) Brightness Sun altitude
Exits shadow 02:23:53 11° 189° (S) 2,227 5.9 -11.4°
Maximum altitude 02:28:35 47° 262° (W) 981 4.3 -10.9°
Drops below altitude 10° 02:33:19 10° 337° (NNW) 2,229 6.7 -10.4°
Sets 02:35:39 0° 343° (NNW) 3,138 7.6 -10.1°
